Weather Service Report


182 
ASUS41 KBTV 260230
RWRBTV
VERMONT REGIONAL WEATHER ROUNDUP
NATIONAL WEATHER SERVICE BURLINGTON VT
1000 PM EDT SAT APR 25 2015

NOTE: "FAIR" INDICATES FEW OR NO CLOUDS BELOW 12,000 FEET WITH NO 
SIGNIFICANT WEATHER AND/OR OBSTRUCTIONS TO VISIBILITY.

* THESE REPORTS ARE NOT UNDER NWS QUALITY CONTROL AND/OR DO NOT
  REPORT WEATHER SUCH AS PRECIPITATION AND FOG.

VTZ001>019-260300-
_____VERMONT_____

  
CITY           SKY/WX    TMP DP  RH WIND       PRES   REMARKS
BURLINGTON     CLOUDY    44  29  55 SW3       29.73F                  
MONTPELIER     CLOUDY    38  29  70 CALM      29.76S                  
MORRISVILLE    CLOUDY    38  32  79 CALM      29.74F                  
ST. JOHNSBURY*   N/A     40  32  73 MISG      29.71F                  
LYNDONVILLE*   CLOUDY    38  30  72 CALM      29.72F                  
MIDDLEBURY*    CLOUDY    42  32  66 CALM      29.74S                  
RUTLAND*       CLOUDY    41  30  65 S3        29.74S                  
SPRINGFIELD    MOCLDY    39  29  67 CALM      29.74S                  
HIGHGATE*      CLOUDY    42  32  68 S3        29.73S                  
NEWPORT*       CLOUDY    37  32  84 CALM      29.72S                  
BENNINGTON     CLOUDY    46  28  49 N3        29.73R                  
MT. MANSFIELD*   N/A     30 N/A N/A CALM        N/A                   

_____LAKE CHAMPLAIN_____

  
CITY           SKY/WX    TMP DP  RH WIND       PRES   REMARKS
BURTON ISLAND*   N/A     41  34  75 S9          N/A                   
COLCHESTER RF*   N/A     39  34  81 S6          N/A                   
DIAMOND ISL*     N/A     41  32  70 SW1         N/A                   

$$

NYZ007-026>031-035-052-083-260300-
_____NORTHERN NEW YORK_____

  
CITY           SKY/WX    TMP DP  RH WIND       PRES   REMARKS
PLATTSBURGH    CLOUDY    42  32  67 CALM      29.73F                  
SARANAC LAKE   CLOUDY    37  30  75 CALM      29.72S                  
MASSENA        CLOUDY    47  32  56 W5        29.78R                  
OGDENSBURG*    CLOUDY    45  32  61 SW6       29.78S                  
POTSDAM*       CLOUDY    43  34  70 W5        29.77R                  
WATERTOWN      CLOUDY    40  28  62 S3        29.80S                  
FT DRUM        CLOUDY    40  30  67 W3        29.78S                  
ALBANY         PTCLDY    45  28  51 NW6       29.75R                  
GLENS FALLS    CLOUDY    46  30  53 CALM      29.75S                  

$$
NHZ002-005-011-260300-
_____NEW HAMPSHIRE_____

  
CITY           SKY/WX    TMP DP  RH WIND       PRES   REMARKS
LEBANON        CLOUDY    38  30  73 CALM      29.73F                  
KEENE          PTCLDY    39  28  65 CALM      29.74S                  
MT WASHINGTON  FOG       19  19 100 N37         N/A  VSB 0   WCI  -1  
PLYMOUTH       CLOUDY    40  34  80 CALM      29.73F                  
WHITEFIELD     CLOUDY    38  30  73 CALM      29.71F                  

$$

_____REGIONAL QUEBEC LOCATIONS_____

  
CITY           SKY/WX    TMP DP  RH WIND       PRES   REMARKS
MONTREAL       MOCLDY    50  30  46 NW8       29.74R                  
QUEBEC CITY    MOCLDY    39  36  87 N3        29.72S                  
SHERBROOKE     CLOUDY    36  36 100 VRB2      29.71S                  

_____REGIONAL ONTARIO LOCATIONS_____

  
CITY           SKY/WX    TMP DP  RH WIND       PRES   REMARKS
OTTAWA         PTCLDY    43  30  61 N12       29.79R                  

______KEY______
VSB  - VISIBILITY IN MILES
WCI  - WIND CHILL INDEX
HX   - HEAT INDEX
$$
NNNN

Return to Home page


Western Regional Climate Center, wrcc@dri.edu